Погода в Трубчевске

Погода в Трубчевске : погода сейчас, прогноз погоды и архив. Всё, что Вы хотите узнать о погоде в Трубчевске!

Хотите узнать прогноз погоды в Трубчевске? Тогда Вам сюда: Погода в Трубчевске

Поиск расширенной информации на нашем сайте:

Другие новости

Новости СМИ2

Главная страница сайта

Новости сайта

03.07.2017

Напоминаем, что на нашем специализированном сайте Метеоцентр.Азия вы можете получить высокодетализированные автоматические прогнозы погоды по пунктам России, СНГ и мира в авиационном формате (включающие направление и скорость ветра, видимость, явления погоды, количество и форму облачности, нижнюю и верхнюю границу облачности).


Погода в Трубчевске - сегодня

Время (UTC), дата Ветер
(°,м/с) 
Видим.   Явления Облачность Т
(°С)
Тd
(°С)
f(%) Тe
(°С)
Pmin
(гПа)
dP
(гПа)
Po
(мм)
O2
(г/м3)
Тmin Tmax R s Состояние
почвы
21 18.06.18 тихо ()   12000 м    3/0 средняя 
[Ac trans]
+17.1 +13.9 81 +24  1016.4  747  280           
00 19.06.18 230 (ЮЗ) 12000 м    8/0 средняя 
[Ac trans]
+16.7 +13.7 82 +25  1016.2  -0.2  746  281           
09 19.06.18 250 (З) 30000 м    5/3 1000 м верхняя 
[Cu med, cong|Ci sp]
+27 +14.2 45 +34  1015.5  -0.3  746  271           
12 19.06.18 300 (СЗ) 30000 м    4/3 1000 м верхняя 
[Cu med, cong|Ci sp]
+28.9 +12.6 37 +34  1014.4  -0.8  746  269           
15 19.06.18 310 (СЗ) 30000 м    4/3 300 м кучево-дожд., средняя 
[Cb cap|Ac trans]
+27.3 +13.1 42 +33  1013.4  -1.2  745  270           
21 19.06.18 240 (ЮЗ) 15000 м    ясно 
+20 +15.3 74 +29  1013.5  -0.2  745  276           
00 20.06.18 270 (З) 14000 м    8/0 средняя 
[Ac trans]
+19.9 +15.7 77 +31  1013.4  -0.1  745  276           
09 20.06.18 290 (З) 4{11}  28000 м    3/3 1000 м 
[Cu med, cong]
+23.3 +11.8 48 +27  1015.4  0.1  746  275           
12 20.06.18 280 (З) 4{11}  30000 м    ясно 
+24.3 +8.5 37 +24  1014.9  -0.4  746  275           
15 20.06.18 280 (З) 5{10}  30000 м    ясно 
+24.7 +8.8 36 +25  1014.4  -0.5  746  274           
21 20.06.18 230 (ЮЗ) 20000 м    ясно 
+15.7 +9.3 66 +17  1016.2  746  283           
00 21.06.18 260 (З) 17000 м    ясно 
+14.1 +9 71 +15  1016.3  746  284           
03 21.06.18 тихо ()   17000 м    ясно 
+15.2 +9.8 70 +16  1016.8  0.6  747  283  +13.5         
09 21.06.18 250 (З) 30000 м    ясно 
+25.1 +9.7 38 +26  1015.7  -0.9  746  274           
12 21.06.18 270 (З) 35000 м    ясно 
+27.4 +10.4 35 +29  1013.9  -1.6  745  271           
15 21.06.18 270 (З) 35000 м    1/1 1000 м 
[Cu hum]
+28.2 +11.1 35 +31  1012.8  -1  745  270           
21 21.06.18 190 (Ю) 23000 м    ясно 
+20.7 +12 57 +25  1012.4  -0.1  744  276           
00 22.06.18 180 (Ю) 17000 м    ясно 
+17.4 +12.2 72 +23  1011.8  -0.9  743  279           
09 22.06.18 200 (Ю) 5{10}  30000 м    1/1 1000 м 
[Cu hum]
+28.5 +13.4 39 +35  1008.5  -0.9  741  268           
18 22.06.18 320 (СЗ) 4{10}  12000 м    8/8 500 м кучево-дожд. 
[Cb cap]
+21 +17.8 82 +35  1009.6  742  273    +30.3       
06 23.06.18 030 (СВ) 5{11}  9000 м  дымка{ливн. осадки}  10/10 480 м кучево-дожд. 
[Cb cap]
+15.8 +13.7 87 +23  1008.2  -3  740  279  +14.7       
09 23.06.18 320 (СЗ) 17000 м    6/0 верхняя 
[Ci fib]
+21.5 +15.9 70 +32  1007.8  740  273           
18 23.06.18 110 (В) 7000 м  в посл. час гроза{ливн. осадки}  10/10 480 м кучево-дожд. 
[Cb cap]
+19.1 +17.5 90 +35  1006.6  740  274    +24.4     
09 24.06.18 270 (З) 16000 м    10/10 500 м кучево-дожд. 
[Cb cap]
+14.3 +9.4 72 +16  1011.7  1.8  743  283           
21 24.06.18 210 (ЮЗ) 7000 м  дымка  3/0 верхняя 
[Ci fib]
+10.1 +8.7 91 +11  1016.8  0.9  746  289           
Время (UTC), дата Ветер
(°,м/с) 
Видим.   Явления Облачность Т
(°С)
Тd
(°С)
f(%) Тe
(°С)
Pmin
(гПа)
dP
(гПа)
Po
(мм)
O2
(г/м3)
Тmin Tmax R s Состояние
почвы

Для получения пояснительной информации подведите курсор к названию столбца.

ПОГОДА в Трубчевске - архив

Всё, что Вы хотите узнать о погоде в Трубчевске - удобно и подробно!

Выберите нужную дату (начиная с 1 января 2015* года) и нажмите кнопку "Найти".
Будут отображены архивные сводки погоды по пункту Трубчевск, начиная с указанной даты.


Отображать данные в формате CSV (для использования в таблицах Excel)


Внимание! Наш архив погоды предназначен исключительно для личного некоммерческого использования в познавательных целях. Если Вам необходимы официальные справки о состоянии погоды (для производственных, юридических, коммерческих и т.п. целей), обращайтесь в органы Росгидромета.

*Примечание: данная дата относится к архиву по метеостанциям СССР (Россия, СНГ, Балтия).
Архив по метеостанциям Зарубежной Европы и Азии (кроме Китая) хранится 10 дней, по другим регионам земного шара (Китай, Африка, Америка, Австралия, Океания) - 1 день.

Трубчевск - район местоположения метеостанции


Название, широта, долгота, высота метеостанции:
Трубчевск 52.6°ш. 33.8°д. 178 м над ур. моря [Российская Федерация]

Дополнительная информация

В oтличие oт бoльшинства пoгoдных сайтoв мы публикуем пoдрoбную метеoинфoрмацию в детальнoм прoфессиoнальнoм фoрмате.

Характеристики температуры и влажнoсти вoздуха измеряются на высoте 2 м в тени вдали oт зданий и деревьев.
Скoрoсть ветра измеряется на высoте 10 м (на урoвне рoста челoвека скoрoсть ветра ниже в 1.5-2 раза). Если метеoстанция нахoдится в гoрoде или в лесу, тo скoрoсть ветра занижена на 2-4 м/с пo сравнению с oткрытым местoм. Скoрoсть ветра над акватoриями крупных рек и oзёр, а также на вершинах хoлмoв на 2-5 м/с выше, чем в oбычных услoвиях.
Атмoсфернoе давление в разных тoчках местнoсти мoжет значительнo oтличаться oт давления на метеoстанции, в зависимoсти oт услoвий рельефа (при пoдъёме на 10 м давление пoнижается примернo на 1 мм рт.ст.).